Location: *
(42.0175°N, 9.4056°E)
Time: 23:16:10
(UTC+00:00)

Landsat 7 - Pass Details

Date: 25 August 2019
Orbit: 701 x 703 km, 98.1° (Epoch: 18 October)

Event Time Altitude Azimuth Distance (km) Brightness Sun altitude
Exits shadow 20:21:38 45° 72° (ENE) 962 4.2 -22.7°
Maximum altitude 20:21:40 45° 71° (ENE) 961 4.2 -22.7°
Drops below altitude 10° 20:26:12 10° 360° (N) 2,179 6.9 -23.4°
Sets 20:28:32 0° 354° (N) 3,102 7.9 -23.7°
